Home > Weather > San Bernardino > Past weeks

Flag for USA Past Weather in San Bernardino, California, USA — Yesterday and Last 2 Weeks

Now
91 °F

Sunny.


Feels Like: 92 °F
Forecast: 70 / 94 °F
Wind: 8 mph from West

Location: Riverside Municipal Airport

Current Time: Jul 30, 2016 at 6:39:25 PM

Latest Report: Jul 30, 2016 at 5:53 PM


Visibility: 10 mi

Pressure: 29.75 "Hg

Humidity: 39%

Dew Point: 63 °F

Location of San BernardinoLocation

Past Weather in San Bernardino — Graph

°F

San Bernardino Temperature Yesterday

Maximum temperature yesterday: 102 °F (at 1:53 PM)
Minimum temperature yesterday: 74 °F (at 4:53 AM)
Average temperature yesterday: 85 °F

High & Low Weather Summary for the Past Weeks

 TemperatureHumidityPressure
High109 °F (Jul 23, 1:53 PM)90% (Jul 16, 5:53 AM)29.99 "Hg (Jul 16, 5:53 AM)
Low63 °F (Jul 16, 4:53 AM)7% (Jul 22, 1:53 PM)29.71 "Hg (Jul 23, 3:53 PM)
Average83 °F39%29.85 "Hg
* Reported Jul 15 4:53 PM — Jul 30 4:53 PM, San Bernardino, Weather by CustomWeather, © 2016

Note: Actual official high and low records may vary slightly from our data, if they occured in-between our weather recording intervals... More about our weather records

Advertising

San Bernardino Weather History for the Previous 24 Hours

Scroll right to see more
 ConditionsComfort  
Time TempWeatherWind HumidityBarometerVisibility
4:53 PM
Sat, Jul 30
94 °FSunny.7 mph37%29.75 "Hg10 mi
3:53 PM94 °FSunny.12 mph37%29.75 "Hg10 mi
2:53 PM93 °FScattered clouds.14 mph37%29.77 "Hg10 mi
1:53 PM93 °FScattered clouds.14 mph37%29.77 "Hg5 mi
12:53 PM92 °FOvercast.12 mph40%29.80 "Hg2 mi
11:53 AM90 °FOvercast.15 mph41%29.81 "Hg2 mi
10:53 AM87 °FMostly cloudy.6 mph45%29.82 "Hg3 mi
9:53 AM82 °FPartly sunny.5 mph55%29.82 "Hg4 mi
8:53 AM81 °FOvercast.5 mph53%29.83 "Hg7 mi
7:53 AM77 °FOvercast.No wind62%29.83 "Hg9 mi
6:53 AM74 °FOvercast.No wind71%29.81 "Hg10 mi
5:53 AM73 °FOvercast.No wind71%29.79 "Hg10 mi
5:03 AM72 °FPassing clouds.No wind76%29.83 "Hg10 mi
4:53 AM72 °FPassing clouds.No wind76%29.78 "Hg10 mi
3:53 AM72 °FClear.5 mph76%29.77 "Hg10 mi
2:53 AM72 °FClear.3 mph76%29.76 "Hg10 mi
1:53 AM73 °FClear.No wind71%29.77 "Hg10 mi
12:53 AM75 °FClear.3 mph66%29.78 "Hg10 mi
11:53 PM
Fri, Jul 29
76 °FClear.No wind58%29.78 "Hg10 mi
10:53 PM78 °FClear.5 mph54%29.78 "Hg10 mi
9:53 PM79 °FClear.7 mph52%29.78 "Hg10 mi
8:53 PM82 °FClear.6 mph44%29.75 "Hg10 mi
7:53 PM85 °FSunny.8 mph40%29.72 "Hg10 mi
6:53 PM90 °FSunny.8 mph35%29.71 "Hg10 mi
Weather by CustomWeather, © 2016

See weather overviewHow to use our weather pages